Wink, TX

4:16 PM CDT on April 28, 2017 (GMT -0500)
Winkler County

Weather History for KINK - November, 2012

Change the Weather History Date:

Sunday, November 18, 2012

  Actual Average Record
Temperature  
Mean Temperature 60 °F -  
Max Temperature 66 °F 70 °F 85 °F (1981)
Min Temperature 53 °F 38 °F 22 °F (1980)
Degree Days  
Heating Degree Days 6    
Growing Degree Days 10 (Base 50)    
Moisture  
Dew Point 47 °F    
Average Humidity 68    
Maximum Humidity 83    
Minimum Humidity 54    
Precipitation  
Precipitation 0.00 in - - ()
Sea Level Pressure  
Sea Level Pressure 30.06 in    
Wind  
Wind Speed 7 mph (SE)    
Max Wind Speed 10 mph    
Max Gust Speed -    
Visibility 10 miles    
Events      
Averages and records for this station are not official NWS values.
T = Trace of Precipitation, MM = Missing Value Source: NWS Daily Summary

Daily Weather History Graph

Daily Weather History Graph

Search for Another Location

Airport or City:

Trip Planner

Search our weather history database for the weather conditions in past years. The results will help you decide how hot, cold, wet, or windy it might be!

Date:

Astronomy

Nov. 18, 2012 Rise Set
Actual Time 7:24 AM CST 5:51 PM CST
Civil Twilight 6:58 AM CST 6:17 PM CST
Nautical Twilight 6:28 AM CST 6:47 PM CST
Astronomical Twilight 5:59 AM CST 7:16 PM CST
Moon 11:56 AM CST (11/18) 11:08 PM CST (11/18)
Length of Visible Light 11h 19m
Length of Day
10h 27m
Waxing Crescent, 30% of the Moon is Illuminated
Nov 18
Waxing Crescent
Nov 20
First Quarter
Nov 28
Full
Dec 6
Last Quarter
Dec 13
New

Hourly Weather History & Observations

Time (CST) Temp. Dew Point Humidity Pressure Visibility Wind Dir Wind Speed Gust Speed Precip Events Conditions
12:53 AM 55.0 °F 45.0 °F 69% 30.04 in 10.0 mi SE 10.4 mph - N/A   Clear
1:53 AM 55.0 °F 45.0 °F 69% 30.04 in 10.0 mi SE 5.8 mph - N/A   Clear
2:53 AM 55.0 °F 45.0 °F 69% 30.03 in 10.0 mi SE 5.8 mph - N/A   Clear
3:53 AM 53.1 °F 43.0 °F 69% 30.02 in 10.0 mi SE 5.8 mph - N/A   Clear
4:53 AM 53.1 °F 43.0 °F 69% 30.01 in 10.0 mi ESE 5.8 mph - N/A   Clear
5:53 AM 53.1 °F 43.0 °F 69% 30.02 in 10.0 mi SE 6.9 mph - N/A   Clear
6:53 AM 53.1 °F 44.1 °F 71% 30.03 in 10.0 mi SE 9.2 mph - N/A   Clear
7:53 AM 54.0 °F 44.1 °F 69% 30.04 in 10.0 mi SE 10.4 mph - N/A   Mostly Cloudy
8:53 AM 53.1 °F 46.9 °F 80% 30.08 in 10.0 mi Calm Calm - 0.00 in   Overcast
9:53 AM 55.0 °F 48.0 °F 77% 30.08 in 10.0 mi ESE 6.9 mph - 0.00 in   Overcast
10:53 AM 57.0 °F 48.0 °F 72% 30.10 in 10.0 mi SE 8.1 mph - 0.00 in   Overcast
11:53 AM 60.1 °F 48.9 °F 67% 30.08 in 10.0 mi ESE 6.9 mph - N/A   Overcast
12:53 PM 64.0 °F 50.0 °F 60% 30.06 in 10.0 mi SSE 3.5 mph - N/A   Overcast
1:53 PM 66.9 °F 51.1 °F 57% 30.04 in 10.0 mi Variable 3.5 mph - N/A   Mostly Cloudy
2:53 PM 66.9 °F 51.1 °F 57% 30.04 in 10.0 mi NNW 8.1 mph - N/A   Mostly Cloudy
3:53 PM 66.9 °F 50.0 °F 54% 30.04 in 10.0 mi ENE 5.8 mph - N/A   Clear
4:53 PM 66.9 °F 50.0 °F 54% 30.04 in 10.0 mi ESE 4.6 mph - N/A   Mostly Cloudy
5:53 PM 64.9 °F 48.9 °F 56% 30.06 in 10.0 mi SE 5.8 mph - N/A   Mostly Cloudy
6:53 PM 63.0 °F 48.9 °F 60% 30.07 in 10.0 mi SSE 8.1 mph - N/A   Overcast
7:53 PM 60.1 °F 48.9 °F 67% 30.09 in 10.0 mi SE 9.2 mph - N/A   Clear
8:53 PM 57.9 °F 48.9 °F 72% 30.09 in 10.0 mi SSE 9.2 mph - N/A   Clear
9:53 PM 57.0 °F 50.0 °F 77% 30.11 in 10.0 mi SSE 5.8 mph - N/A   Clear
10:53 PM 54.0 °F 48.9 °F 83% 30.11 in 10.0 mi SE 5.8 mph - N/A   Clear
11:53 PM 53.1 °F 48.0 °F 83% 30.10 in 10.0 mi ESE 5.8 mph - N/A   Clear